Theta_e
311 310 310 310 310 310 310 310 313 313 313 312 312 312 312 315 316 316 317 316 316 322 323 323 318 318 320 321 322 321 314 315 319 318 333 339 338 339 338 343 349 351 348 349 353
311 310 310 310 311 310 310 310 312 313 314 313 312 312 312 313 315 316 318 321 319 323 322 320 317 322 322 321 321 317 314 317 318 323 335 339 337 339 338 342 346 349 348 352 352
309 310 309 310 310 311 310 310 310 314 314 314 312 313 313 313 316 324 319 320 323 322 321 316 320 322 323 321 321 317 316 316 320 327 338 338 337 338 340 342 346 348 349 353 353
308 309 309 309 309 311 311 311 310 314 314 315 313 314 314 314 322 325 324 323 322 321 316 318 322 323 319 319 321 320 320 320 320 321 332 332 338 337 341 344 346 347 349 353 353
308 308 308 308 309 309 311 311 310 312 315 315 314 314 314 314 316 324 325 322 319 317 317 322 323 323 321 319 319 317 318 321 324 320 322 327 336 342 343 344 346 348 349 353 353
307 307 307 308 308 309 309 312 311 311 316 315 315 315 314 314 316 323 325 319 318 319 322 322 324 323 322 320 319 321 320 322 321 321 323 333 335 344 343 346 348 348 349 351 352
307 307 307 307 308 308 309 311 311 310 316 319 318 317 315 316 319 325 324 321 319 319 322 324 323 323 323 320 322 322 322 318 321 322 327 335 339 339 343 346 348 346 346 348 345
307 307 307 308 308 308 309 312 312 310 316 319 319 318 318 315 317 324 323 319 320 321 323 323 322 322 322 323 321 320 317 319 320 322 329 331 337 334 343 347 344 343 344 344 344
307 307 307 308 308 308 309 314 311 310 317 319 318 319 319 316 320 324 324 321 321 322 323 323 322 321 321 318 317 316 320 320 319 319 322 326 327 333 343 342 341 342 342 342 333
307 307 308 308 308 308 313 313 311 311 316 318 318 319 318 321 321 324 324 323 323 323 323 322 322 315 312 315 319 322 321 320 321 320 321 321 323 336 340 340 339 340 340 334 331
307 308 308 308 308 309 319 321 320 321 318 319 317 318 318 320 324 323 324 324 323 322 321 321 318 318 317 316 319 320 320 321 320 320 322 319 320 337 337 335 337 337 334 329 330
308 308 309 309 308 311 318 319 317 316 317 319 319 320 321 321 321 324 323 323 322 320 320 319 319 318 318 318 318 319 321 319 319 320 319 320 320 324 332 334 335 335 333 330 327
308 308 309 309 308 315 318 319 319 318 317 318 319 319 321 321 322 323 323 323 321 320 320 319 321 321 321 322 322 322 322 321 320 322 320 320 320 321 321 326 329 330 332 330 327
307 308 308 309 308 311 318 319 319 318 313 315 318 317 318 322 324 323 324 322 321 320 319 319 320 322 322 322 322 322 320 322 324 321 322 319 321 320 321 320 321 327 331 332 330
307 307 307 305 306 308 313 319 320 318 315 319 319 318 320 322 323 324 324 322 320 321 319 321 322 322 322 322 321 322 320 323 323 320 320 320 319 319 318 320 319 321 325 325 327
307 307 306 304 305 309 315 318 318 317 317 322 318 317 319 322 322 322 323 323 323 320 320 319 321 321 320 321 322 322 321 318 317 317 320 320 319 319 318 320 320 331 334 325 324
307 307 304 304 305 311 314 318 315 318 318 324 322 317 316 319 321 320 321 321 320 321 320 319 319 320 322 322 320 319 318 320 321 319 321 318 321 321 322 322 326 333 334 333 332
307 306 305 305 305 305 314 315 317 316 319 322 321 321 318 318 318 319 320 320 318 318 317 320 320 320 321 320 321 320 318 321 323 321 320 320 325 326 325 327 331 332 332 332 331
306 305 305 307 306 306 317 316 314 317 322 321 320 322 320 320 319 318 318 319 318 317 320 319 321 322 323 323 320 321 320 318 319 319 321 319 322 325 325 325 329 328 327 324 322
302 303 311 315 305 310 314 313 317 319 319 319 319 322 321 322 323 317 317 319 321 318 319 319 321 321 321 321 319 319 318 321 318 323 323 321 325 328 328 327 326 326 324 321 320
301 303 315 308 312 317 312 313 317 317 317 320 320 320 322 322 324 323 322 320 323 321 318 317 319 321 323 323 320 319 319 317 317 320 321 321 321 325 326 326 326 325 322 321 320
300 301 313 315 315 313 314 316 317 317 317 319 320 318 320 321 322 324 326 325 325 321 320 318 317 320 321 323 322 323 325 320 320 325 322 323 324 326 324 326 326 324 321 321 321
299 303 314 313 314 313 314 316 316 315 316 318 321 320 320 320 321 324 325 325 325 324 322 322 320 321 322 321 322 325 326 322 320 320 325 324 323 323 325 327 327 323 321 321 321
299 306 312 316 315 313 315 314 315 317 319 320 319 321 321 321 320 322 322 323 324 323 323 324 321 320 323 322 324 326 326 325 322 323 323 325 324 327 324 328 326 322 325 323 320
299 303 309 311 313 313 314 315 316 317 317 319 319 320 320 321 321 325 326 324 323 324 321 317 322 324 325 326 326 326 327 326 325 322 324 323 324 322 325 324 326 323 321 319 318
300 305 309 310 311 313 313 315 317 318 316 319 320 319 320 321 319 328 328 327 327 323 322 316 323 324 327 326 325 326 326 324 325 324 323 323 323 319 323 326 328 324 321 318 318
306 307 308 309 309 308 310 311 313 312 315 319 320 322 323 324 325 326 326 325 324 324 323 322 322 321 325 325 322 319 322 322 322 323 323 324 322 323 324 326 327 324 322 321 318
Wind_Speed
16 16 15 15 14 13 12 12 12 9 7 7 7 7 8 9 11 13 15 5 9 6 2 2 4 3 2 2 3 4 4 1 4 2 1 12 4 11 4 14 12 15 12 30 29
16 16 16 15 15 14 13 12 12 10 8 7 7 7 8 10 12 16 6 8 10 7 3 2 2 1 1 2 3 4 4 8 4 4 6 19 7 13 3 14 11 12 12 35 33
17 16 16 16 16 15 14 12 11 10 8 7 7 7 8 9 12 1 2 9 11 7 4 2 4 2 1 1 2 4 6 6 8 3 22 23 15 14 8 6 18 23 32 38 36
18 17 17 17 16 15 15 14 11 10 8 7 6 7 7 6 2 1 2 7 8 7 7 7 3 1 0 2 4 2 9 11 7 12 19 10 18 13 18 14 30 27 36 40 40
19 18 18 17 16 15 15 15 11 9 8 6 6 7 7 6 9 1 1 5 9 11 11 7 3 3 2 3 3 4 5 10 21 14 26 19 19 14 25 19 24 31 36 41 40
19 19 18 18 17 16 15 15 11 8 7 5 5 7 7 5 5 5 5 5 9 12 10 6 2 7 5 3 4 4 11 16 10 4 8 16 8 17 22 19 30 36 38 39 41
19 20 19 18 18 17 15 14 10 8 6 5 5 7 12 17 5 5 5 7 7 9 6 2 7 5 6 5 4 6 5 8 2 2 5 22 5 13 28 30 36 37 35 38 37
20 20 20 19 19 18 16 13 9 7 6 6 6 8 10 5 10 11 5 9 9 9 7 7 10 9 3 7 7 5 5 3 5 4 10 4 8 7 31 36 32 33 31 33 35
21 21 20 19 19 19 16 11 7 6 6 6 7 6 11 7 15 12 6 8 11 9 9 11 7 2 3 4 5 7 1 2 9 3 3 3 4 10 33 31 27 33 32 32 33
22 21 20 19 18 18 12 8 4 5 6 6 10 7 11 1 11 16 10 9 8 5 6 4 2 3 4 5 4 3 3 4 4 5 5 4 7 11 29 26 29 37 35 38 39
23 22 21 18 16 14 9 2 3 1 5 9 6 11 13 9 3 13 17 15 17 7 2 2 3 5 7 6 2 1 1 3 7 5 2 8 8 17 30 22 24 26 33 41 43
23 23 21 18 15 5 8 6 10 11 11 15 21 28 30 26 8 9 18 16 8 6 2 4 5 9 3 4 4 3 2 8 8 5 6 6 10 7 18 29 35 35 34 40 41
23 23 22 18 12 2 1 9 8 7 6 12 22 23 25 12 13 16 14 24 5 5 4 6 6 5 4 3 2 4 3 4 7 5 2 2 7 2 2 7 14 22 31 31 44
23 22 22 20 4 5 5 5 4 5 4 7 5 9 17 13 5 23 17 18 2 9 5 5 7 6 1 5 6 6 8 7 3 3 1 3 4 5 2 6 8 31 40 43 41
24 22 20 19 16 8 5 3 3 2 3 3 4 3 16 18 2 14 21 20 9 5 6 7 1 2 1 6 5 10 7 6 3 4 2 5 4 7 4 6 5 4 12 28 35
24 23 22 18 18 4 1 3 1 4 7 5 8 7 6 7 3 6 16 20 14 6 1 7 2 1 5 5 3 4 4 7 5 3 3 2 4 6 5 6 7 9 12 4 13
25 23 21 21 12 6 1 4 4 3 5 3 1 1 5 6 4 4 7 5 6 3 3 6 6 3 4 5 3 5 6 3 3 4 4 3 4 1 9 9 6 6 12 15 21
25 24 21 20 15 12 5 4 4 5 5 5 5 3 5 6 7 6 6 6 2 5 3 6 7 5 4 7 5 4 8 6 5 3 4 3 1 4 6 12 19 18 17 20 25
24 22 20 12 14 17 9 2 8 6 3 6 8 3 4 1 4 6 9 10 10 9 9 6 6 3 4 3 7 3 3 4 7 3 2 2 4 4 8 8 16 18 21 22 23
23 22 8 7 17 23 4 5 5 4 5 4 2 5 3 4 4 6 7 6 7 12 10 7 3 5 5 1 3 6 6 3 3 4 4 4 2 3 6 6 3 14 22 21 21
16 10 2 15 22 12 4 7 5 10 6 2 3 3 1 2 2 1 3 5 6 3 9 5 5 5 2 1 2 2 2 7 6 4 5 1 4 5 5 4 1 13 22 24 23
7 2 9 22 4 1 3 5 3 5 2 5 4 9 6 5 2 2 2 4 3 9 10 6 6 4 6 5 3 4 4 4 5 3 2 4 5 6 7 5 19 20 24 24 25
8 6 8 19 3 2 5 3 5 4 5 5 4 6 4 5 2 3 1 4 2 4 8 8 1 1 6 6 4 7 4 4 6 4 5 5 5 4 7 3 16 27 25 25 25
5 3 2 14 4 6 2 4 4 9 10 9 6 3 3 3 2 0 2 4 3 4 10 6 4 6 9 6 4 5 3 2 4 4 4 5 3 6 8 8 14 24 30 30 28
2 2 2 2 0 2 3 2 7 4 4 5 2 6 6 4 3 1 4 4 6 4 4 4 4 4 4 3 4 2 3 3 5 4 6 6 8 6 13 13 25 26 26 27 27
1 3 5 4 7 2 6 5 4 3 4 5 2 6 1 6 7 4 3 0 2 3 3 3 2 3 3 3 3 3 3 5 7 2 5 2 5 4 8 10 20 25 26 26 28
2 3 3 5 4 1 2 4 1 5 6 4 5 5 4 5 6 5 7 4 3 5 3 4 5 3 2 2 2 3 6 6 3 1 2 5 8 6 4 9 20 26 26 26 24
Wind_Direction
3 1 358 355 351 348 344 342 341 327 314 300 293 287 285 284 281 279 270 235 190 192 239 263 307 220 254 263 193 157 65 228 260 172 123 155 196 153 213 154 169 188 189 165 161
359 357 354 352 350 346 340 335 335 329 317 305 297 290 291 294 291 283 278 202 175 196 219 274 179 177 290 281 169 113 120 219 240 129 163 173 181 173 165 158 208 204 182 162 165
355 353 351 349 348 344 337 331 326 327 316 311 299 290 297 306 312 323 166 187 189 209 215 198 172 283 294 242 255 157 186 198 238 239 160 183 178 180 156 201 202 187 166 171 172
351 349 346 345 343 341 334 327 319 319 312 308 297 289 297 298 227 92 139 196 188 198 172 169 205 206 247 220 228 281 250 255 264 220 203 197 192 191 190 199 204 192 173 175 179
347 345 342 339 338 336 332 324 312 308 308 298 292 286 291 276 255 217 306 195 180 176 177 170 208 195 213 211 262 200 270 283 285 264 223 217 189 172 198 218 207 185 182 183 186
343 341 340 337 333 332 329 322 305 294 298 286 283 285 276 266 250 257 220 209 180 178 183 197 299 314 275 227 168 272 264 293 312 276 193 161 176 163 200 201 182 182 187 191 189
339 337 336 335 330 327 326 318 298 280 280 273 278 284 271 251 224 205 217 235 200 186 182 266 326 305 316 300 316 276 322 339 328 74 92 134 64 216 201 189 184 192 192 196 192
334 333 332 333 329 324 324 313 289 266 270 263 276 283 262 270 218 187 193 206 202 205 236 294 310 286 256 305 349 27 47 43 287 10 165 111 210 225 189 183 193 197 199 199 201
331 331 330 330 328 323 328 310 285 260 259 255 271 278 267 231 209 190 198 199 189 221 261 291 283 292 349 68 6 11 320 341 325 1 112 81 243 232 185 187 194 199 202 202 203
329 328 328 328 328 324 336 318 286 259 251 263 253 286 249 292 231 211 200 197 209 257 290 233 194 65 33 65 218 235 343 330 286 303 11 303 224 180 193 195 201 203 203 201 199
328 326 325 328 329 329 6 91 356 330 272 244 253 243 270 292 218 213 204 212 229 283 207 305 83 227 229 199 163 109 185 275 269 258 246 255 260 191 196 200 212 209 204 203 203
326 324 323 326 326 318 20 72 24 310 288 272 256 257 259 267 292 216 201 197 172 208 142 17 246 235 219 186 217 217 307 296 291 273 160 294 279 206 185 204 206 206 212 211 206
324 323 321 325 320 215 336 21 16 349 267 274 246 237 243 240 225 235 194 202 158 183 175 176 231 108 175 261 236 251 199 242 234 342 132 17 331 61 196 241 232 233 228 223 214
321 321 321 324 309 311 156 356 358 322 16 273 226 235 205 192 243 232 223 197 150 191 200 235 273 237 269 264 165 266 213 212 159 96 215 49 274 307 110 208 218 226 229 227 226
317 316 315 315 301 312 274 300 288 310 327 227 194 174 171 165 167 201 206 196 166 194 121 238 200 75 282 241 159 227 158 178 125 108 80 348 73 273 349 326 295 323 287 251 242
311 311 308 303 294 292 269 222 200 54 249 304 156 153 125 177 201 154 186 201 201 177 198 233 238 228 225 284 247 132 91 49 55 93 53 243 120 285 327 297 312 357 11 29 191
306 305 300 290 279 202 98 158 57 174 320 337 346 165 160 163 223 168 149 154 162 145 279 322 270 247 217 284 9 73 62 359 351 11 211 159 96 270 322 330 10 31 62 105 139
306 304 292 276 266 238 205 63 187 233 260 309 345 276 194 140 241 174 132 198 273 119 130 191 312 166 172 182 205 198 151 152 210 188 241 284 275 324 318 48 65 69 76 88 109
311 306 296 286 222 189 178 134 205 210 314 350 327 189 195 281 164 145 185 201 195 172 182 157 261 266 219 191 143 196 172 184 102 35 75 264 116 263 355 33 75 69 76 77 94
317 315 314 224 179 172 108 231 237 235 10 1 294 6 105 350 90 148 174 212 212 187 159 211 303 217 278 129 122 165 155 90 22 147 216 283 100 220 330 332 49 98 98 101 116
317 317 358 157 154 164 173 230 275 281 290 283 254 350 349 139 151 174 191 278 206 137 172 132 132 270 35 359 177 6 58 50 107 107 160 189 265 216 231 231 96 110 120 133 137
304 333 148 156 119 131 185 203 271 287 306 280 237 208 202 202 196 149 205 227 321 160 152 186 157 231 227 336 13 104 112 127 116 201 108 138 269 176 219 240 150 139 142 156 158
315 277 188 181 164 236 273 262 243 240 236 241 275 194 191 166 159 242 243 320 296 111 159 175 112 74 6 344 356 75 50 91 87 74 187 134 256 174 199 250 156 144 161 172 175
305 329 225 209 216 156 196 267 257 276 241 223 246 230 124 114 17 183 306 43 1 68 97 100 111 157 190 193 152 93 118 176 110 113 179 215 202 194 197 184 168 169 183 184 184
270 273 349 281 359 161 179 293 293 292 289 330 247 207 161 129 107 33 349 350 43 20 54 90 107 100 51 52 67 87 102 172 220 189 161 243 193 229 203 190 190 181 184 182 183
275 339 335 282 294 244 174 223 239 286 230 290 355 1 93 145 163 180 166 324 206 353 70 20 135 77 95 72 47 234 179 234 240 234 258 220 277 206 215 164 178 187 184 178 185
207 268 296 295 324 109 155 284 289 318 274 249 289 118 114 182 137 95 137 124 153 141 110 82 122 89 105 22 217 340 214 225 224 197 245 187 235 160 176 162 180 189 185 187 187